When you browse on this site, cookies collect data to enhance your experience and personalize the content and advertising you see.
Visit our Privacy Policy to learn more. By continuing to use the site, you agree to this use of cookies and data.

Meteo pe oră la Alichur

Astăzi, 12 August, Miercuri

Timp Temperatura Precipitaţii Vânt Presiune Umiditate
00:00 +8°C° 0 mm 2 m/s 464 mmHg 28%
01:00 +7°C° 0 mm 2 m/s 463 mmHg 30%
02:00 +7°C° 0 mm 2 m/s 463 mmHg 32%
03:00 +7°C° 0 mm 1 m/s 462 mmHg 34%
04:00 +6°C° 0 mm 1 m/s 461 mmHg 37%
05:00 +5°C° 0 mm 1 m/s 461 mmHg 39%
06:00 +7°C° 0 mm 1 m/s 462 mmHg 36%
07:00 +8°C° 0 mm 1 m/s 463 mmHg 33%
08:00 +8°C° 0 mm 2 m/s 464 mmHg 30%
09:00 +10°C° 0 mm 2 m/s 465 mmHg 25%
10:00 +11°C° 0 mm 3 m/s 465 mmHg 20%
11:00 +12°C° 0 mm 3 m/s 466 mmHg 15%
12:00 +14°C° 0 mm 5 m/s 467 mmHg 13%
13:00 +15°C° 0 mm 6 m/s 467 mmHg 11%
14:00 +17°C° 0 mm 8 m/s 468 mmHg 9%
15:00 +16°C° 0 mm 9 m/s 468 mmHg 9%
16:00 +16°C° 0 mm 9 m/s 467 mmHg 10%
17:00 +16°C° 0 mm 10 m/s 467 mmHg 10%
18:00 +14°C° 0 mm 7 m/s 466 mmHg 12%
19:00 +13°C° 0 mm 5 m/s 466 mmHg 15%
20:00 +12°C° 0 mm 3 m/s 465 mmHg 17%
21:00 +11°C° 0 mm 3 m/s 465 mmHg 19%
22:00 +10°C° 0 mm 2 m/s 465 mmHg 21%
23:00 +9°C° 0 mm 2 m/s 464 mmHg 23%

Mâine, 13 August, Joi

Timp Temperatura Precipitaţii Vânt Presiune Umiditate
00:00 +8°C° 0 mm 2 m/s 463 mmHg 25%
01:00 +8°C° 0 mm 2 m/s 463 mmHg 27%
02:00 +7°C° 0 mm 2 m/s 462 mmHg 29%
03:00 +6°C° 0 mm 2 m/s 462 mmHg 31%
04:00 +5°C° 0 mm 2 m/s 461 mmHg 34%
05:00 +5°C° 0 mm 2 m/s 461 mmHg 36%
06:00 +6°C° 0 mm 2 m/s 462 mmHg 34%
07:00 +7°C° 0 mm 2 m/s 463 mmHg 31%
08:00 +8°C° 0 mm 2 m/s 464 mmHg 29%
09:00 +10°C° 0 mm 3 m/s 464 mmHg 24%
10:00 +11°C° 0 mm 3 m/s 465 mmHg 20%
11:00 +12°C° 0 mm 4 m/s 466 mmHg 15%
12:00 +14°C° 0 mm 6 m/s 466 mmHg 13%
13:00 +15°C° 0 mm 7 m/s 466 mmHg 12%
14:00 +16°C° 0 mm 9 m/s 467 mmHg 10%
15:00 +16°C° 0 mm 9 m/s 466 mmHg 11%
16:00 +16°C° 0 mm 10 m/s 466 mmHg 12%
17:00 +14°C° 0 mm 10 m/s 465 mmHg 12%
18:00 +13°C° 0 mm 8 m/s 465 mmHg 15%
19:00 +13°C° 0 mm 5 m/s 465 mmHg 17%
20:00 +11°C° 0 mm 3 m/s 464 mmHg 20%
21:00 +11°C° 0 mm 3 m/s 464 mmHg 22%
22:00 +10°C° 0 mm 2 m/s 464 mmHg 24%
23:00 +9°C° 0 mm 2 m/s 463 mmHg 27%

Poimâine, 14 August, Vineri

Timp Temperatura Precipitaţii Vânt Presiune Umiditate
00:00 +8°C° 0 mm 2 m/s 463 mmHg 29%
01:00 +7°C° 0 mm 2 m/s 462 mmHg 32%
02:00 +7°C° 0 mm 2 m/s 462 mmHg 35%
03:00 +6°C° 0 mm 2 m/s 461 mmHg 38%
04:00 +5°C° 0 mm 2 m/s 461 mmHg 41%
05:00 +5°C° 0 mm 2 m/s 460 mmHg 44%
06:00 +6°C° 0 mm 2 m/s 461 mmHg 40%
07:00 +7°C° 0 mm 2 m/s 462 mmHg 37%
08:00 +8°C° 0 mm 2 m/s 463 mmHg 34%
09:00 +9°C° 0 mm 2 m/s 464 mmHg 29%
10:00 +11°C° 0 mm 3 m/s 464 mmHg 24%
11:00 +12°C° 0 mm 3 m/s 465 mmHg 19%
12:00 +14°C° 0 mm 5 m/s 466 mmHg 16%
13:00 +15°C° 0 mm 6 m/s 466 mmHg 13%
14:00 +17°C° 0 mm 7 m/s 467 mmHg 11%
15:00 +17°C° 0 mm 8 m/s 467 mmHg 11%
16:00 +17°C° 0 mm 9 m/s 466 mmHg 11%
17:00 +16°C° 0 mm 10 m/s 466 mmHg 11%
18:00 +15°C° 0 mm 7 m/s 466 mmHg 13%
19:00 +14°C° 0 mm 5 m/s 465 mmHg 15%
20:00 +12°C° 0 mm 3 m/s 464 mmHg 17%
21:00 +12°C° 0 mm 2 m/s 464 mmHg 20%
22:00 +10°C° 0 mm 2 m/s 464 mmHg 22%
23:00 +9°C° 0 mm 2 m/s 464 mmHg 25%

15 August, Sâmbătă

Timp Temperatura Precipitaţii Vânt Presiune Umiditate
00:00 +9°C° 0 mm 2 m/s 463 mmHg 28%
01:00 +8°C° 0 mm 2 m/s 462 mmHg 31%
02:00 +7°C° 0 mm 2 m/s 462 mmHg 34%
03:00 +7°C° 0 mm 1 m/s 461 mmHg 38%
04:00 +6°C° 0 mm 1 m/s 461 mmHg 42%
05:00 +6°C° 0 mm 1 m/s 460 mmHg 46%
06:00 +7°C° 0 mm 1 m/s 461 mmHg 42%
07:00 +8°C° 0 mm 1 m/s 462 mmHg 39%
08:00 +9°C° 0 mm 1 m/s 463 mmHg 36%
09:00 +10°C° 0 mm 2 m/s 464 mmHg 30%
10:00 +12°C° 0 mm 2 m/s 465 mmHg 24%
11:00 +14°C° 0 mm 2 m/s 465 mmHg 18%
12:00 +14°C° 0 mm 4 m/s 466 mmHg 15%
13:00 +16°C° 0 mm 5 m/s 467 mmHg 12%
14:00 +17°C° 0 mm 7 m/s 468 mmHg 9%
15:00 +17°C° 0 mm 8 m/s 467 mmHg 9%
16:00 +17°C° 0 mm 8 m/s 467 mmHg 9%
17:00 +17°C° 0 mm 9 m/s 467 mmHg 9%
18:00 +16°C° 0 mm 7 m/s 467 mmHg 11%
19:00 +14°C° 0 mm 5 m/s 466 mmHg 13%
20:00 +13°C° 0 mm 3 m/s 466 mmHg 15%
21:00 +13°C° 0 mm 2 m/s 465 mmHg 17%
22:00 +12°C° 0 mm 2 m/s 465 mmHg 19%
23:00 +11°C° 0 mm 1 m/s 464 mmHg 21%

16 August, Duminică

Timp Temperatura Precipitaţii Vânt Presiune Umiditate
00:00 +10°C° 0 mm 1 m/s 464 mmHg 24%
01:00 +9°C° 0 mm 1 m/s 463 mmHg 26%
02:00 +9°C° 0 mm 1 m/s 462 mmHg 29%
03:00 +8°C° 0 mm 1 m/s 462 mmHg 32%
04:00 +7°C° 0 mm 1 m/s 462 mmHg 35%
05:00 +6°C° 0 mm 1 m/s 461 mmHg 37%
06:00 +8°C° 0 mm 1 m/s 463 mmHg 34%
07:00 +10°C° 0 mm 1 m/s 464 mmHg 31%
08:00 +11°C° 0 mm 1 m/s 465 mmHg 28%
09:00 +13°C° 0 mm 1 m/s 466 mmHg 24%
10:00 +14°C° 0 mm 1 m/s 467 mmHg 20%
11:00 +15°C° 0 mm 2 m/s 467 mmHg 16%
12:00 +17°C° 0 mm 3 m/s 468 mmHg 15%
13:00 +18°C° 0 mm 4 m/s 468 mmHg 13%
14:00 +20°C° 0 mm 5 m/s 469 mmHg 11%
15:00 +20°C° 0 mm 5 m/s 469 mmHg 11%
16:00 +20°C° 0 mm 6 m/s 469 mmHg 11%
17:00 +20°C° 0 mm 7 m/s 469 mmHg 11%
18:00 +17°C° 0 mm 6 m/s 468 mmHg 13%
19:00 +16°C° 0 mm 5 m/s 468 mmHg 16%
20:00 +16°C° 0 mm 3 m/s 467 mmHg 18%
21:00 +14°C° 0 mm 3 m/s 467 mmHg 20%
22:00 +14°C° 0 mm 2 m/s 466 mmHg 22%
23:00 +13°C° 0 mm 2 m/s 466 mmHg 25%

17 August, Luni

Timp Temperatura Precipitaţii Vânt Presiune Umiditate
00:00 +12°C° 0 mm 1 m/s 465 mmHg 27%
01:00 +11°C° 0 mm 1 m/s 465 mmHg 30%
02:00 +10°C° 0 mm 1 m/s 464 mmHg 32%
03:00 +10°C° 0 mm 1 m/s 464 mmHg 35%
04:00 +9°C° 0 mm 1 m/s 463 mmHg 38%
05:00 +8°C° 0 mm 1 m/s 463 mmHg 41%
06:00 +10°C° 0 mm 1 m/s 464 mmHg 39%
07:00 +11°C° 0 mm 1 m/s 465 mmHg 36%
08:00 +12°C° 0 mm 1 m/s 466 mmHg 34%
09:00 +13°C° 0 mm 2 m/s 466 mmHg 29%
10:00 +15°C° 0 mm 2 m/s 467 mmHg 25%
11:00 +16°C° 0 mm 2 m/s 468 mmHg 21%
12:00 +17°C° 0 mm 4 m/s 468 mmHg 18%
13:00 +17°C° 0 mm 5 m/s 468 mmHg 16%
14:00 +20°C° 0 mm 6 m/s 469 mmHg 13%
15:00 +18°C° 0 mm 7 m/s 468 mmHg 13%
16:00 +18°C° 0 mm 7 m/s 468 mmHg 13%
17:00 +18°C° 0 mm 8 m/s 468 mmHg 13%
18:00 +17°C° 0 mm 7 m/s 467 mmHg 15%
19:00 +15°C° 0 mm 6 m/s 467 mmHg 18%
20:00 +14°C° 0 mm 5 m/s 466 mmHg 21%
21:00 +13°C° 0 mm 4 m/s 466 mmHg 23%
22:00 +12°C° 0 mm 3 m/s 465 mmHg 26%
23:00 +12°C° 0 mm 2 m/s 465 mmHg 28%
Arată mai mult